STARLINK-5942 (56014 NORAD) Tracking and Keplerian Element Data

This shows tracking and keplerian element data for the satellite.

Feedback or suggestion? Click here.




ElementValue
Catalog56014
NameSTARLINK-5942
Epoch Orbit717
Epoch Day127.00001157
Epoch Year2023
RAAN293.203
Inclination42.9996
Eccentricity0.0001418
Argument of Perigee275.811
Mean Anonmoly303.3293
Mean Motion15.54923085
Decay Rate-0.00925286
L11 56014U 23042AE 23127.00001157 -.00925286 00000+0 -14868-1 0 9997
L22 56014 42.9996 293.2030 0001418 275.8110 303.3293 15.54923085 7174



Live tracking and technical data element details for STARLINK-5942 (NORAD 56014). STARLINK-5942 can be tracked NOW for your location showing map with azimuth and elevation plus other details from your city location.







IsCatalogInMostPopularTable: catalog: 56014, numindb: -1

Insert: records affected: 1


GetName: 56014 STARLINK-5942

Hit Count: inserted at: Sat, 03 Jun 2023 19:05:24 GMT